sat.trackr.live / text

‹ back to catalog

HULIANWANG DIGUI-162

NORAD 68136 · 2026-047H

PAYLOAD ACTIVE UNKNOWN

§ Identity

Operator
Country
PRC
Launch date
2026-03-12
Launch site
WSC
Launch vehicle
Mass (kg)
RCS (m²)

External: N2YO · Heavens-Above · Gunter

§ Orbital elements

Epoch: 2026-05-25T00:22:29.815104Z

Period
108.33 min
Inclination
50.0042°
Eccentricity
0.0000200
Mean motion
13.29327377 rev/d
Perigee alt
1,149.2 km
Apogee alt
1,149.5 km
Semi-major
7,527.4 km
B*
7.5023e-5
RAAN
139.0063°
Arg perigee
353.5214°
Mean anomaly
6.5655°
Rev number
998

§ Raw data

HULIANWANG DIGUI-1621 68136U 26047H   26145.01562286 -.00000089  00000+0  75023-4 0  99992 68136  50.0042 139.0063 0000200 353.5214   6.5655 13.29327377  9981

JSON: /api/v1/satellites/68136 · /tle

For live sub-satellite position, see the globe view (requires WebGL).

§ Visibility from observer

Set your observer location to see the next 7 days of passes ≥ 10°. The values pass through the URL so the page stays shareable.

No JS? Fill the form by hand. The geolocation button needs JavaScript.